Regional Weather Roundup
Issued by NWS

Home | Current Version | Previous Version | Graphics & Text | Print | Product List | Glossary On
Versions: 1 2 3 4 5 6 7 8 9 10 11 12 13 14 15 16 17 18 19 20 21 22 23 24 25 26 27 28 29 30 31 32 33 34 35 36 37 38 39 40 41 42 43 44 45 46 47 48 49 50
000
ASUS43 KLSX 281207
RWRMO

WEATHER SUMMARY FOR MISSOURI
NATIONAL WEATHER SERVICE SPRINGFIELD MO
700 AM CDT THU JUL 28 2016

NOTE: "FAIR" INDICATES FEW OR NO CLOUDS BELOW 12,000 FEET WITH NO
       SIGNIFICANT WEATHER AND/OR OBSTRUCTIONS TO VISIBILITY.
       CURRENT SKY AND/OR WEATHER CONDITIONS ARE NOT AVAILABLE FOR
       CHILLICOTHE AND FARMINGTON.

MOZ001>031-035>038-043-044-053-054-281300-
...NORTHERN AND WESTERN MISSOURI...

CITY           SKY/WX    TMP DP  RH WIND       PRES   REMARKS
KANSAS CTY INT CLOUDY    72  71  97 N5        29.97R
6HR MIN TEMP:  70; 6HR MAX TEMP:  76;

KANSAS C DTWN  PTCLDY    75  71  87 CALM      29.95R
6HR MIN TEMP:  74; 6HR MAX TEMP:  80;

LEE`S SUMMIT   PTCLDY    74  72  93 CALM      29.97R
6HR MIN TEMP:  73; 6HR MAX TEMP:  79;

ST JOSEPH      CLOUDY    72  70  93 CALM      29.97R
6HR MIN TEMP:  68; 6HR MAX TEMP:  74;

CHILLICOTHE      N/A     72  70  93 CALM      29.96R
6HR MIN TEMP:  71; 6HR MAX TEMP:  74;

KIRKSVILLE     CLEAR     69  67  93 CALM      29.95R
6HR MIN TEMP:  66; 6HR MAX TEMP:  71;


$$
MOZ066>068-077>081-088>096-101>105-281300-
...SOUTHWEST MISSOURI...

CITY           SKY/WX    TMP DP  RH WIND       PRES   REMARKS
SPRINGFIELD    CLEAR     71  67  87 SW3       29.97S
6HR MIN TEMP:  70; 6HR MAX TEMP:  74;

JOPLIN         CLEAR     72  71  97 S5        29.98R
6HR MIN TEMP:  71; 6HR MAX TEMP:  74;

BRANSON        CLEAR     72  72 100 CALM      29.99R

$$
MOZ032>034-039>042-045>050-055>058-069>072-281300-
...CENTRAL MISSOURI...

CITY           SKY/WX    TMP DP  RH WIND       PRES   REMARKS
COLUMBIA       CLEAR     74  73  97 NW5       29.92R
6HR MIN TEMP:  73; 6HR MAX TEMP:  76;

JEFFERSON CITY CLOUDY    73  71  93 CALM      29.91S
6HR MIN TEMP:  72; 6HR MAX TEMP:  78;

ROLLA          PTCLDY    70  69  97 SW7       29.92S
6HR MIN TEMP:  68; 6HR MAX TEMP:  73;

SEDALIA        CLEAR     74  71  91 W5        29.95R
6HR MIN TEMP:  73; 6HR MAX TEMP:  78;

WHITEMAN AFB   MOCLDY    73  73 100 CALM      29.94R
OSAGE BEACH    MOCLDY    73  73 100 SW3       29.95R

$$
MOZ051-052-059>065-281300-
...EAST CENTRAL MISSOURI...

CITY           SKY/WX    TMP DP  RH WIND       PRES   REMARKS
ST LOUIS INTL  CLOUDY    77  71  82 W6        29.91R
6HR MIN TEMP:  76; 6HR MAX TEMP:  79;

SPIRIT OF STL  PTCLDY    75  73  93 CALM      29.90R
6HR MIN TEMP:  73; 6HR MAX TEMP:  77;

ST CHARLES     SUNNY     74  73  97 SW5       29.90R
6HR MIN TEMP:  72; 6HR MAX TEMP:  77;


$$
MOZ072>076-082>087-097>100-106>115-281300-
...SOUTH CENTRAL AND SOUTHEAST MISSOURI...

CITY           SKY/WX    TMP DP  RH WIND       PRES   REMARKS
CAPE GIRARDEAU MOSUNNY   74  72  93 CALM      29.90S
6HR MIN TEMP:  73; 6HR MAX TEMP:  75; 6HR PCP:  0.80;

FARMINGTON     PTCLDY    72  71  97 CALM      29.94R
6HR MIN TEMP:  71; 6HR MAX TEMP:  74;

POPLAR BLUFF   CLOUDY    74  72  93 S3        29.91S
6HR MIN TEMP:  73; 6HR MAX TEMP:  75;

WEST PLAINS    FOG       71  69  93 W6        29.98S VSB 1/4
6HR MIN TEMP:  70; 6HR MAX TEMP:  72;


$$



USA.gov is the U.S. government's official web portal to all federal, state and local government web resources and services.